SP4LIN-15 Weather Reports


time (UTC)temp
F
wind
direction
speed
knots
gust
knots
rain 1hr
in
rain 24hr
in
rain mn
in
humidity
%
barometer
mb
20260905211038 54 247 1.7 3.5 0.00 0.14 0.00 87 1003.8
20260905205538 55 247 1.7 1.7 0.00 0.14 0.00 87 1004.0
20260905204038 55 247 3.5 3.5 0.00 0.14 0.00 88 1003.8
20260905202538 54 270 0.0 1.7 0.00 0.14 0.00 87 1003.7
20260905201038 55 337 0.0 5.2 0.00 0.14 0.00 87 1003.8
20260905195538 54 270 0.0 0.0 0.00 0.14 0.00 87 1003.6
20260905194038 55 270 0.0 1.7 0.00 0.14 0.00 87 1003.5
20260905192538 55 270 0.0 2.6 0.00 0.14 0.00 88 1003.6
20260905191038 55 247 5.2 5.2 0.00 0.14 0.00 87 1003.4
20260905185538 55 202 0.0 0.9 0.00 0.14 0.00 86 1003.3
20260905184038 55 247 0.0 0.0 0.00 0.14 0.00 85 1003.2
20260905182538 55 247 0.0 0.0 0.00 0.14 0.00 85 1003.2
20260905181038 56 247 0.0 0.9 0.00 0.14 0.00 84 1003.3
20260905175538 56 225 1.7 1.7 0.00 0.14 0.00 83 1003.1
20260905174038 57 270 0.0 3.5 0.00 0.14 0.00 81 1003.0
20260905172538 57 315 0.0 0.9 0.00 0.14 0.00 83 1003.0
20260905171038 58 247 0.0 0.9 0.00 0.14 0.00 82 1003.0
20260905165538 59 247 1.7 1.7 0.00 0.16 0.00 83 1003.0
20260905164038 59 292 0.0 0.0 0.00 0.16 0.00 82 1002.8
20260905162538 59 292 0.0 0.0 0.00 0.16 0.00 81 1002.5
20260905161038 60 270 0.0 0.0 0.00 0.16 0.00 80 1002.3
20260905155538 60 270 0.0 0.0 0.00 0.16 0.00 78 1002.5
20260905154038 60 292 1.7 1.7 0.00 0.16 0.00 78 1002.5
20260905152538 61 247 0.0 7.0 0.00 0.16 0.00 77 1002.5
20260905151038 62 270 0.9 1.7 0.00 0.16 0.00 75 1002.6
20260905145538 64 225 0.9 0.9 0.00 0.24 0.00 74 1002.5
20260905144038 69 292 3.5 3.5 0.00 0.24 0.00 72 1002.7
20260905142538 65 292 1.7 3.5 0.02 0.24 0.00 77 1002.5
20260905141038 62 247 0.9 0.9 0.02 0.24 0.00 79 1002.2
20260905135538 64 247 1.7 2.6 0.02 0.34 0.00 78 1002.2
20260905134038 64 292 0.0 0.0 0.04 0.34 0.00 86 1002.2
20260905132538 59 225 0.0 0.0 0.04 0.32 0.00 84 1002.1
20260905131039 59 270 0.0 0.0 0.04 0.32 0.00 80 1002.3
20260905125539 60 270 0.0 2.6 0.04 0.38 0.00 80 1002.2
20260905124039 61 247 1.7 7.8 0.00 0.34 0.00 74 1002.3
20260905122539 64 292 1.7 1.7 0.00 0.34 0.00 73 1002.0
20260905121039 64 315 5.2 7.0 0.00 0.34 0.00 67 1002.1
20260905115539 68 292 0.0 4.3 0.00 0.34 0.00 62 1001.6
20260905114039 71 225 3.5 3.5 0.00 0.34 0.00 57 1001.4
20260905112539 71 292 2.6 2.6 0.00 0.34 0.00 61 1001.3
20260905111039 69 247 0.9 0.9 0.00 0.34 0.00 59 1001.2
20260905105539 70 225 4.3 4.3 0.00 0.34 0.00 66 1001.3
20260905104039 67 270 0.0 2.6 0.00 0.34 0.00 70 1001.4
20260905102539 65 270 0.9 3.5 0.00 0.34 0.00 70 1001.3
20260905101039 65 270 3.5 6.1 0.00 0.34 0.00 69 1001.4
20260905095539 64 292 1.7 1.7 0.00 0.34 0.00 69 1001.0
20260905094039 66 270 4.3 4.3 0.00 0.34 0.00 64 1000.8
20260905092539 70 0 5.2 9.6 0.00 0.34 0.00 61 1000.4
20260905091039 69 270 4.3 4.3 0.00 0.34 0.00 67 1000.3
20260905085539 68 315 1.7 1.7 0.04 0.34 0.00 71 1000.2
20260905084039 66 247 0.0 1.7 0.04 0.34 0.00 77 1000.1
20260905082539 62 270 0.0 0.0 0.04 0.34 0.00 86 1000.0
20260905081039 58 225 7.0 7.0 0.04 0.34 0.00 83 1000.1
20260905075539 60 270 0.9 7.0 0.00 0.30 0.00 77 999.8
20260905074039 63 225 1.7 4.3 0.00 0.30 0.00 72 999.4
20260905072539 67 270 7.0 7.0 0.00 0.30 0.00 66 999.1
20260905071039 69 247 2.6 5.2 0.00 0.30 0.00 66 998.8
20260905065539 64 270 5.2 5.2 0.00 0.30 0.00 74 998.8
20260905064039 62 247 1.7 1.7 0.00 0.30 0.00 77 998.8
20260905062539 62 247 0.0 2.6 0.00 0.30 0.00 75 998.7
20260905061039 62 202 1.7 7.0 0.00 0.30 0.00 79 998.6
20260905055539 59 247 1.7 1.7 0.00 0.30 0.00 81 998.5
20260905054039 59 270 0.9 0.9 0.00 0.30 0.00 82 998.3
20260905052539 59 270 3.5 3.5 0.00 0.30 0.00 83 998.2
20260905051039 58 270 0.0 0.0 0.00 0.30 0.00 85 997.9
20260905045539 57 292 4.3 4.3 0.00 0.30 0.00 85 997.8
20260905044039 57 337 0.0 0.9 0.00 0.30 0.00 84 997.6
20260905042539 57 270 0.0 2.6 0.00 0.30 0.00 84 997.5
20260905041039 56 292 0.0 0.9 0.00 0.30 0.00 85 997.6
20260905035539 56 270 4.3 4.3 0.00 0.30 0.00 84 997.3
20260905034039 56 315 2.6 2.6 0.00 0.30 0.00 83 997.0
20260905032539 57 270 0.0 8.7 0.00 0.30 0.00 84 996.8
20260905031040 57 225 0.0 1.7 0.00 0.30 0.00 83 996.7
20260905025539 57 292 2.6 5.2 0.00 0.30 0.00 83 996.7
20260905024040 57 247 5.2 5.2 0.00 0.30 0.00 83 996.3
20260905022540 57 292 3.5 3.5 0.00 0.30 0.00 83 996.1
20260905021040 57 270 0.0 0.0 0.00 0.30 0.00 84 995.9
20260905015540 57 270 0.0 0.0 0.00 0.30 0.00 85 995.7
20260905014040 57 270 0.0 0.0 0.00 0.30 0.00 86 995.3
20260905012540 58 270 0.0 0.0 0.00 0.30 0.00 87 995.1
20260905011040 59 270 0.0 0.0 0.00 0.30 0.00 87 995.0
20260905005540 59 270 0.0 0.0 0.00 0.30 0.00 88 994.8
20260905004040 59 270 0.0 0.0 0.00 0.30 0.00 88 994.4
20260905002540 59 270 0.0 0.0 0.04 0.30 0.00 89 994.2
20260905001040 60 270 0.0 0.0 0.04 0.30 0.00 89 994.0
20260904235540 60 270 0.0 0.0 0.04 0.30 0.00 89 993.9
20260904234040 60 270 0.0 0.0 0.04 0.30 0.00 88 993.8
20260904232540 61 270 0.0 0.0 0.00 0.26 0.00 88 993.7
20260904231040 61 270 0.0 0.0 0.00 0.26 0.00 88 993.6
20260904225540 61 270 0.0 0.0 0.00 0.26 0.00 88 993.7
20260904224040 61 270 0.0 0.0 0.00 0.26 0.00 87 993.5
20260904222540 61 270 0.0 0.0 0.00 0.26 0.00 87 993.5
20260904221040 61 270 0.0 0.0 0.00 0.26 0.00 87 993.4
20260904215540 62 270 0.0 0.0 0.00 0.26 0.00 87 993.4
20260904214040 62 270 0.0 0.0 0.00 0.26 0.00 86 993.4
20260904212540 62 270 0.0 0.0 0.00 0.26 0.00 86 993.6